GW3666 Weather Reports


Display with metric or nautical units.
time (UTC)temp
F
wind
direction
speed
MPH
gust
MPH
rain 1hr
in
rain 24hr
in
rain mn
in
humidity
%
barometer
mb
20260505124619 55 199 0.0 0.0 0.00 0.00 0.00 92 1014.4
20260505124116 55 162 0.0 0.0 0.00 0.00 0.00 92 1014.4
20260505123612 55 164 0.0 0.0 0.00 0.00 0.00 92 1014.5
20260505123108 55 110 3.0 3.0 0.00 0.00 0.00 92 1014.5
20260505122604 55 57 0.0 0.0 0.00 0.00 0.00 92 1014.4
20260505122102 55 86 0.0 0.0 0.00 0.00 0.00 92 1014.3
20260505121553 55 332 0.0 0.0 0.00 0.00 0.00 92 1014.4
20260505121050 55 39 0.0 0.0 0.00 0.00 0.00 92 1014.5
20260505120546 55 7 0.0 0.0 0.00 0.00 0.00 92 1014.3
20260505120042 55 343 0.0 0.0 0.00 0.00 0.00 92 1014.1
20260505115536 55 228 0.0 0.0 0.00 0.00 0.00 92 1014.3
20260505115034 55 47 0.0 0.0 0.00 0.00 0.00 92 1014.1
20260505114531 55 274 0.0 0.0 0.00 0.00 0.00 92 1014.3
20260505114027 55 47 0.0 0.0 0.00 0.00 0.00 92 1014.2
20260505113524 56 108 0.0 0.0 0.00 0.00 0.00 92 1014.4
20260505113020 56 172 3.0 3.0 0.00 0.00 0.00 92 1014.3
20260505112516 56 178 0.0 1.0 0.00 0.00 0.00 92 1014.4
20260505112014 56 197 1.0 2.0 0.00 0.00 0.00 93 1014.3
20260505111508 56 187 0.0 0.0 0.00 0.00 0.00 93 1014.3
20260505111005 56 194 2.0 2.0 0.00 0.00 0.00 93 1014.4
20260505110502 56 60 0.0 0.0 0.00 0.00 0.00 93 1014.3
20260505101933 56 329 0.0 2.0 0.00 0.00 0.00 93 1014.0
20260505101427 56 83 1.0 2.0 0.00 0.00 0.00 94 1013.8
20260505100923 56 22 0.0 0.0 0.00 0.00 0.00 94 1013.8
20260505100420 55 152 0.0 0.0 0.00 0.00 0.00 94 1013.8
20260505095915 55 78 0.0 0.0 0.00 0.00 0.00 94 1013.8
20260505095413 55 141 0.0 0.0 0.00 0.00 0.00 94 1013.6
20260505094909 55 350 0.0 0.0 0.00 0.00 0.00 94 1013.9
20260505094406 55 80 0.0 0.0 0.00 0.00 0.00 94 1013.4
20260505093901 55 43 0.0 0.0 0.00 0.00 0.00 94 1013.5
20260505093359 55 4 0.0 0.0 0.00 0.00 0.00 94 1013.5
20260505092856 55 150 1.0 2.0 0.00 0.00 0.00 95 1013.4
20260505092354 55 324 2.0 5.0 0.00 0.00 0.00 95 1013.4
20260505091851 55 342 0.0 0.0 0.00 0.00 0.00 95 1013.6
20260505091349 54 185 0.0 0.0 0.00 0.00 0.00 96 1013.4
20260505090847 54 90 0.0 0.0 0.00 0.00 0.00 96 1013.4
20260505090345 54 165 0.0 0.0 0.00 0.00 0.00 97 1013.5
20260505085842 53 62 0.0 1.0 0.00 0.00 0.00 97 1013.6
20260505085340 54 334 0.0 0.0 0.00 0.00 0.00 96 1013.3
20260505084837 54 80 0.0 1.0 0.00 0.00 0.00 96 1013.1
20260505084335 53 266 0.0 0.0 0.00 0.00 0.00 96 1013.4
20260505083832 54 179 0.0 0.0 0.00 0.00 0.00 96 1013.3
20260505083330 53 37 0.0 0.0 0.00 0.00 0.00 96 1013.2
20260505082826 54 60 0.0 0.0 0.00 0.00 0.00 96 1013.2
20260505082323 54 25 0.0 0.0 0.00 0.00 0.00 96 1013.2
20260505081819 54 176 0.0 0.0 0.00 0.00 0.00 96 1013.1
20260505081316 54 223 0.0 0.0 0.00 0.00 0.00 96 1013.1
20260505080813 54 92 0.0 0.0 0.00 0.00 0.00 95 1013.5
20260505080309 54 353 0.0 0.0 0.00 0.00 0.00 95 1013.4
20260505075804 54 129 0.0 0.0 0.00 0.00 0.00 95 1013.2
20260505075304 54 118 0.0 0.0 0.00 0.00 0.00 95 1013.0
20260505074759 54 124 0.0 1.0 0.00 0.00 0.00 95 1013.2
20260505074256 54 197 0.0 0.0 0.00 0.00 0.00 95 1012.9
20260505073753 54 75 0.0 0.0 0.00 0.00 0.00 96 1012.8
20260505073251 53 47 0.0 0.0 0.00 0.00 0.00 97 1012.9
20260505072747 53 22 0.0 0.0 0.00 0.00 0.00 96 1012.8
20260505072244 53 68 0.0 0.0 0.00 0.00 0.00 96 1012.8
20260505071739 53 10 0.0 0.0 0.00 0.00 0.00 96 1012.8
20260505071236 54 13 0.0 0.0 0.00 0.00 0.00 95 1012.6
20260505070734 54 298 0.0 0.0 0.00 0.00 0.00 95 1012.7
20260505070230 54 208 0.0 0.0 0.00 0.00 0.00 95 1012.8
20260505065726 54 98 0.0 0.0 0.00 0.00 0.00 94 1012.7
20260505065223 55 192 0.0 0.0 0.00 0.00 0.00 93 1012.5
20260505064720 55 76 0.0 0.0 0.00 0.00 0.00 93 1012.4
20260505064218 55 281 0.0 0.0 0.00 0.00 0.00 93 1012.3
20260505063715 56 343 0.0 0.0 0.00 0.00 0.00 91 1012.3
20260505063211 55 160 1.0 2.0 0.00 0.00 0.00 92 1012.2
20260505062707 56 210 0.0 0.0 0.00 0.00 0.00 91 1012.3
20260505062205 56 241 2.0 2.0 0.00 0.00 0.00 90 1012.2
20260505061702 56 57 0.0 0.0 0.00 0.00 0.00 90 1012.0
20260505061200 56 187 2.0 2.0 0.00 0.00 0.00 89 1012.1
20260505060657 56 101 0.0 0.0 0.00 0.00 0.00 90 1011.9
20260505060154 56 308 1.0 1.0 0.00 0.00 0.00 89 1011.8
20260505055649 57 227 0.0 1.0 0.00 0.00 0.00 89 1011.9
20260505055146 56 156 1.0 1.0 0.00 0.00 0.00 89 1011.6
20260505054643 56 58 0.0 0.0 0.00 0.00 0.00 88 1011.7
20260505054141 57 5 0.0 1.0 0.00 0.00 0.00 87 1011.9
20260505053639 57 251 1.0 1.0 0.00 0.00 0.00 86 1011.7
20260505053135 57 272 0.0 0.0 0.00 0.00 0.00 86 1011.5
20260505052632 57 312 0.0 0.0 0.00 0.00 0.00 86 1011.7
20260505052129 58 19 0.0 0.0 0.00 0.00 0.00 85 1011.6
20260505051626 58 348 0.0 0.0 0.00 0.00 0.00 85 1011.6
20260505051124 58 176 2.0 3.0 0.00 0.00 0.00 84 1011.5
20260505050622 58 176 2.0 3.0 0.00 0.00 0.00 85 1011.6
20260505050120 58 142 1.0 2.0 0.00 0.00 0.00 84 1011.4
20260505041549 61 309 0.0 1.0 0.00 0.00 0.00 75 1011.3
20260505041047 61 339 0.0 0.0 0.00 0.00 0.00 75 1011.3
20260505040544 61 31 0.0 0.0 0.00 0.00 0.00 74 1011.2
20260505040041 62 0 0.0 0.0 0.00 0.00 0.00 73 1011.0
20260505035537 61 35 2.0 2.0 0.00 0.00 0.00 72 1011.1
20260505035034 62 188 0.0 1.0 0.00 0.00 0.00 73 1010.9
20260505034530 62 214 1.0 1.0 0.00 0.00 0.00 73 1010.9
20260505034027 63 343 0.0 0.0 0.00 0.00 0.00 73 1010.9
20260505033525 63 163 1.0 2.0 0.00 0.00 0.00 73 1010.8
20260505033023 63 297 2.0 2.0 0.00 0.00 0.00 73 1010.5
20260505032520 64 30 0.0 0.0 0.00 0.00 0.00 74 1010.4
20260505032016 64 338 0.0 0.0 0.00 0.00 0.00 70 1010.6
20260505031514 65 5 0.0 0.0 0.00 0.00 0.00 71 1010.7
20260505031010 65 60 0.0 0.0 0.00 0.00 0.00 69 1010.4
20260505030507 66 40 0.0 0.0 0.00 0.00 0.00 68 1010.4
20260505030003 66 58 0.0 0.0 0.00 0.00 0.00 67 1010.4
20260505025459 67 40 0.0 0.0 0.00 0.00 0.00 65 1010.4
20260505024958 67 65 0.0 0.0 0.00 0.00 0.00 65 1010.2
20260505024454 68 1 2.0 2.0 0.00 0.00 0.00 64 1010.0
20260505023952 68 214 1.0 1.0 0.00 0.00 0.00 63 1010.1
20260505023449 69 106 2.0 2.0 0.00 0.00 0.00 62 1010.1
20260505022946 70 335 1.0 1.0 0.00 0.00 0.00 61 1010.0
20260505022444 71 172 1.0 1.0 0.00 0.00 0.00 60 1010.0
20260505021941 71 171 2.0 2.0 0.00 0.00 0.00 58 1010.1
20260505021437 72 143 1.0 1.0 0.00 0.00 0.00 58 1010.1
20260505020933 72 101 1.0 1.0 0.00 0.00 0.00 60 1009.9
20260505020428 72 97 1.0 1.0 0.00 0.00 0.00 59 1010.1
20260505015925 72 4 1.0 2.0 0.00 0.00 0.00 58 1010.1
20260505015422 73 67 0.0 1.0 0.00 0.00 0.00 58 1009.9
20260505014920 73 111 1.0 2.0 0.00 0.00 0.00 58 1009.9
20260505014416 74 114 2.0 3.0 0.00 0.00 0.00 56 1009.9
20260505013913 74 143 2.0 5.0 0.00 0.00 0.00 56 1009.8
20260505013410 75 213 1.0 2.0 0.00 0.00 0.00 54 1009.8
20260505012909 75 118 3.0 5.0 0.00 0.00 0.00 53 1009.8
20260505012406 76 113 1.0 1.0 0.00 0.00 0.00 53 1009.8
20260505011902 76 85 1.0 2.0 0.00 0.00 0.00 52 1009.9
20260505011359 76 279 4.0 7.0 0.00 0.00 0.00 52 1009.6
20260505010855 77 174 2.0 3.0 0.00 0.00 0.00 52 1009.8
20260505010351 77 2 0.0 0.0 0.00 0.00 0.00 51 1009.9
20260505005847 77 12 2.0 2.0 0.00 0.00 0.00 49 1009.8
20260505005344 77 330 1.0 2.0 0.00 0.00 0.00 51 1010.0
20260505004842 78 336 4.0 6.0 0.00 0.00 0.00 48 1009.8
20260505004338 78 318 1.0 1.0 0.00 0.00 0.00 46 1009.8
20260505003835 79 259 1.0 1.0 0.00 0.00 0.00 47 1009.7
20260505003333 80 299 1.0 2.0 0.00 0.00 0.00 44 1009.8
20260505002828 80 97 3.0 3.0 0.00 0.00 0.00 44 1009.7
20260505002326 80 80 1.0 2.0 0.00 0.00 0.00 46 1009.6
20260505001824 80 182 1.0 2.0 0.00 0.00 0.00 47 1009.7
20260505001320 81 224 4.0 6.0 0.00 0.00 0.00 46 1009.8
20260505000818 81 94 1.0 1.0 0.00 0.00 0.00 46 1009.7
20260505000316 80 330 1.0 2.0 0.00 0.00 0.00 51 1009.4
20260504235812 79 12 3.0 5.0 0.00 0.00 0.00 46 1009.9
20260504235309 80 333 5.0 7.0 0.00 0.00 0.00 47 1009.7
20260504234806 80 359 3.0 6.0 0.00 0.00 0.00 49 1009.6
20260504234303 80 317 3.0 3.0 0.00 0.00 0.00 46 1009.6
20260504233759 79 77 3.0 5.0 0.00 0.00 0.00 47 1009.6
20260504233255 78 316 5.0 6.0 0.00 0.00 0.00 48 1009.7
20260504232752 80 328 1.0 1.0 0.00 0.00 0.00 49 1009.7
20260504232249 82 308 4.0 6.0 0.00 0.00 0.00 52 1009.6
20260504231746 81 227 1.0 2.0 0.00 0.00 0.00 49 1009.8
20260504231243 80 327 2.0 3.0 0.00 0.00 0.00 47 1009.9
20260504230738 80 33 1.0 1.0 0.00 0.00 0.00 49 1009.8
20260504230237 80 326 2.0 2.0 0.00 0.00 0.00 50 1010.0
20260504225736 80 316 5.0 6.0 0.00 0.00 0.00 51 1010.0
20260504225231 81 324 6.0 8.0 0.00 0.00 0.00 48 1009.8
20260504224729 81 153 1.0 3.0 0.00 0.00 0.00 51 1010.0
20260504224226 80 312 3.0 5.0 0.00 0.00 0.00 48 1009.9
20260504223722 80 17 3.0 3.0 0.00 0.00 0.00 51 1010.1
20260504223218 81 352 2.0 5.0 0.00 0.00 0.00 52 1010.1
20260504222715 81 299 3.0 3.0 0.00 0.00 0.00 52 1010.2
20260504222212 81 228 1.0 1.0 0.00 0.00 0.00 47 1010.0
20260504221709 80 192 3.0 5.0 0.00 0.00 0.00 49 1010.2
20260504221206 80 331 7.0 10.0 0.00 0.00 0.00 50 1010.3
20260504220703 80 47 0.0 1.0 0.00 0.00 0.00 53 1010.1
20260504220200 80 330 8.0 9.0 0.00 0.00 0.00 50 1010.3
20260504215656 80 47 0.0 1.0 0.00 0.00 0.00 55 1010.1
20260504215154 80 306 3.0 3.0 0.00 0.00 0.00 51 1010.4
20260504214649 79 351 4.0 5.0 0.00 0.00 0.00 55 1010.5
20260504214146 80 6 2.0 2.0 0.00 0.00 0.00 51 1010.4
20260504213643 80 288 6.0 8.0 0.00 0.00 0.00 50 1010.3
20260504213139 80 334 2.0 2.0 0.00 0.00 0.00 50 1010.4
20260504212636 80 79 3.0 5.0 0.00 0.00 0.00 49 1010.3
20260504212133 81 353 5.0 6.0 0.00 0.00 0.00 50 1010.4
20260504211630 80 317 1.0 1.0 0.00 0.00 0.00 53 1010.3
20260504211126 81 327 3.0 3.0 0.00 0.00 0.00 49 1010.5
20260504210625 82 245 1.0 1.0 0.00 0.00 0.00 53 1010.5
20260504210120 81 165 2.0 6.0 0.00 0.00 0.00 51 1010.4
20260504205618 82 329 1.0 2.0 0.00 0.00 0.00 52 1010.4
20260504205116 80 305 5.0 8.0 0.00 0.00 0.00 55 1010.5
20260504204614 80 260 3.0 3.0 0.00 0.00 0.00 50 1010.7
20260504204112 81 88 2.0 2.0 0.00 0.00 0.00 49 1010.5
20260504203611 81 156 2.0 2.0 0.00 0.00 0.00 52 1010.7
20260504203108 80 221 2.0 2.0 0.00 0.00 0.00 52 1010.8
20260504202603 80 217 2.0 2.0 0.00 0.00 0.00 48 1010.8
20260504202100 80 338 1.0 2.0 0.00 0.00 0.00 54 1010.8
20260504201556 81 124 0.0 1.0 0.00 0.00 0.00 49 1010.7
20260504201055 81 329 1.0 2.0 0.00 0.00 0.00 53 1010.8
20260504200550 80 340 1.0 1.0 0.00 0.00 0.00 51 1010.8
20260504200048 79 310 4.0 5.0 0.00 0.00 0.00 49 1010.6
20260504195544 80 181 2.0 2.0 0.00 0.00 0.00 49 1010.7
20260504195040 79 224 1.0 2.0 0.00 0.00 0.00 52 1010.9
20260504194537 79 241 1.0 2.0 0.00 0.00 0.00 50 1010.9
20260504194032 79 300 3.0 3.0 0.00 0.00 0.00 52 1010.9
20260504193529 79 24 0.0 1.0 0.00 0.00 0.00 54 1011.1
20260504193028 77 195 1.0 3.0 0.00 0.00 0.00 58 1011.0
20260504192526 78 358 1.0 1.0 0.00 0.00 0.00 56 1011.1
20260504192024 78 353 1.0 1.0 0.00 0.00 0.00 59 1011.1
20260504191521 78 319 0.0 0.0 0.00 0.00 0.00 57 1011.3
20260504191017 77 10 1.0 1.0 0.00 0.00 0.00 60 1011.1
20260504190514 78 174 2.0 2.0 0.00 0.00 0.00 54 1011.1
20260504190010 77 330 1.0 2.0 0.00 0.00 0.00 59 1011.4
20260504185507 75 333 1.0 1.0 0.00 0.00 0.00 57 1011.0
20260504185003 75 345 3.0 5.0 0.00 0.00 0.00 62 1011.2
20260504184459 75 358 4.0 6.0 0.00 0.00 0.00 61 1011.3
20260504183954 75 335 3.0 3.0 0.00 0.00 0.00 61 1011.2
20260504183452 75 326 4.0 5.0 0.00 0.00 0.00 64 1011.3
20260504182950 75 354 3.0 3.0 0.00 0.00 0.00 60 1011.4
20260504182446 76 313 2.0 2.0 0.00 0.00 0.00 60 1011.2
20260504181944 75 303 1.0 1.0 0.00 0.00 0.00 58 1011.3
20260504181441 75 317 2.0 2.0 0.00 0.00 0.00 60 1011.3
20260504180939 75 319 2.0 3.0 0.00 0.00 0.00 62 1011.5
20260504180438 74 11 3.0 3.0 0.00 0.00 0.00 60 1011.3
20260504175936 74 303 1.0 1.0 0.00 0.00 0.00 62 1011.4
20260504175432 73 238 2.0 3.0 0.00 0.00 0.00 63 1011.5
20260504174930 74 340 3.0 3.0 0.00 0.00 0.00 64 1011.4
20260504174427 73 287 3.0 5.0 0.00 0.00 0.00 64 1011.3
20260504173925 73 348 1.0 1.0 0.00 0.00 0.00 62 1011.6
20260504173421 73 339 3.0 3.0 0.00 0.00 0.00 62 1011.5
20260504172919 72 326 1.0 2.0 0.00 0.00 0.00 61 1011.5
20260504172414 72 311 2.0 2.0 0.00 0.00 0.00 62 1011.3
20260504171911 72 350 0.0 1.0 0.00 0.00 0.00 59 1011.3
20260504171408 72 302 4.0 5.0 0.00 0.00 0.00 61 1011.2
20260504170905 72 309 2.0 2.0 0.00 0.00 0.00 60 1011.1
20260504170402 71 11 1.0 2.0 0.00 0.00 0.00 62 1011.1
20260504160320 66 12 0.0 0.0 0.00 0.00 0.00 72 1011.0
20260504150745 58 322 0.0 0.0 0.00 0.00 0.00 99 1010.9
20260504150242 57 305 0.0 0.0 0.00 0.00 0.00 99 1010.8
20260504141212 49 306 0.0 0.0 0.00 0.00 0.00 99 1010.5
20260504140708 48 306 0.0 0.0 0.00 0.00 0.00 99 1010.3
20260504140203 48 306 0.0 0.0 0.00 0.00 0.00 99 1010.3
20260504130632 46 306 0.0 0.0 0.00 0.00 0.00 99 1009.9
20260504130129 46 306 0.0 0.0 0.00 0.00 0.00 99 1009.7